Home > Weather > Linköping > Past weeks

Flag for Sweden Past Weather in Linköping, Sweden — Yesterday and Last 2 Weeks

Now
61 °F

Light rain. Passing clouds.


Feels Like: 61 °F
Forecast: 55 / 70 °F
Wind: 3 mph from South

Location: Linkoping / Saab

Current Time: Jul 2, 2016 at 12:36:20 AM

Latest Report: Jul 2, 2016 at 12:20 AM


Visibility: N/A

Pressure: 29.83 "Hg

Humidity: 94%

Dew Point: 59 °F

Location of LinköpingLocation

Past Weather in Linköping — Graph

°F

Linköping Temperature Yesterday

Maximum temperature yesterday: 72 °F (at 4:50 PM)
Minimum temperature yesterday: 57 °F (at 4:20 AM)
Average temperature yesterday: 64 °F

High & Low Weather Summary for the Past Weeks

 TemperatureHumidityPressure
High84 °F (Jun 25, 6:20 PM)100% (Jun 18, 1:20 AM)30.24 "Hg (Jun 18, 1:20 AM)
Low50 °F (Jun 29, 3:20 AM)35% (Jun 28, 5:50 PM)29.42 "Hg (Jun 18, 2:50 AM)
Average64 °F73%29.89 "Hg
* Reported Jun 16 11:20 PM — Jul 1 11:20 PM, Linköping, Weather by CustomWeather, © 2016

Note: Actual official high and low records may vary slightly from our data, if they occured in-between our weather recording intervals... More about our weather records

Advertising

Linköping Weather History for the Previous 24 Hours

Scroll right to see more
 ConditionsComfort  
Time TempWeatherWind HumidityBarometerVisibility
11:20 PM
Fri, Jul 1
64 °FPassing clouds.8 mph83%29.83 "HgN/A
10:50 PM66 °FPartly sunny.8 mph73%29.83 "HgN/A
10:20 PM66 °FPartly sunny.9 mph73%29.83 "HgN/A
9:50 PM66 °FPassing clouds.7 mph73%29.83 "HgN/A
9:20 PM66 °FPartly sunny.9 mph73%29.83 "HgN/A
8:50 PM68 °FPassing clouds.8 mph64%29.83 "HgN/A
8:20 PM68 °FPassing clouds.9 mph64%29.83 "HgN/A
7:50 PM70 °FSunny.12 mph60%29.80 "Hg10 mi
7:20 PM70 °FPassing clouds.13 mph60%29.80 "HgN/A
6:50 PM72 °FScattered clouds.10 mph57%29.80 "HgN/A
5:50 PM72 °FPassing clouds.8 mph57%29.80 "HgN/A
5:20 PM72 °FPassing clouds.12 mph57%29.80 "HgN/A
4:50 PM72 °FPassing clouds.7 mph65%29.80 "HgN/A
4:20 PM70 °FPassing clouds.6 mph64%29.80 "HgN/A
3:50 PM66 °FPassing clouds.6 mph73%29.80 "HgN/A
2:50 PM63 °FBroken clouds.8 mph83%29.80 "HgN/A
2:20 PM66 °FDrizzle. Broken clouds.12 mph78%29.80 "HgN/A
1:50 PM68 °FBroken clouds.14 mph73%29.77 "HgN/A
1:20 PM68 °FScattered clouds.14 mph78%29.80 "HgN/A
12:50 PM66 °FBroken clouds.15 mph83%29.80 "HgN/A
12:20 PM66 °FScattered clouds.14 mph73%29.80 "HgN/A
11:50 AM66 °FBroken clouds.12 mph73%29.80 "HgN/A
11:20 AM66 °FBroken clouds.9 mph73%29.80 "HgN/A
10:50 AM66 °FPartly sunny.10 mph73%29.80 "HgN/A
10:20 AM64 °FPartly sunny.7 mph78%29.80 "HgN/A
9:50 AM63 °FPartly sunny.7 mph83%29.83 "HgN/A
9:20 AM63 °FPartly sunny.9 mph77%29.83 "HgN/A
8:50 AM63 °FPartly sunny.7 mph77%29.83 "HgN/A
8:20 AM63 °FPartly sunny.6 mph83%29.83 "HgN/A
7:50 AM63 °FPassing clouds.6 mph83%29.83 "HgN/A
7:20 AM61 °FPassing clouds.6 mph88%29.83 "HgN/A
6:50 AM61 °FSunny.5 mph88%29.83 "Hg10 mi
6:20 AM59 °FSunny.3 mph94%29.86 "Hg10 mi
5:50 AM59 °FSunny.3 mph88%29.86 "Hg10 mi
5:20 AM59 °FPassing clouds.3 mph88%29.86 "HgN/A
4:50 AM59 °FPassing clouds.3 mph88%29.86 "HgN/A
4:20 AM57 °FPassing clouds.3 mph94%29.83 "HgN/A
3:50 AM59 °FPassing clouds.5 mph88%29.86 "HgN/A
3:20 AM59 °FOvercast.5 mph88%29.83 "HgN/A
2:50 AM59 °FMostly cloudy.5 mph88%29.86 "HgN/A
2:20 AM59 °FOvercast.6 mph94%29.86 "HgN/A
1:50 AM59 °FPassing clouds.6 mph88%29.86 "HgN/A
1:20 AM59 °FPassing clouds.5 mph88%29.86 "HgN/A
12:50 AM61 °FOvercast.5 mph83%29.86 "HgN/A
12:20 AM61 °FOvercast.5 mph83%29.86 "HgN/A
Weather by CustomWeather, © 2016

See weather overviewHow to use our weather pages